Location: Leesville
(37.1191°N, 79.3856°W)
Time: 04:58:43
(UTC+00:00)

SEEDS - Visible Passes

Search period start: 19 January 2026 00:00
Search period end: 29 January 2026 00:00
Orbit: 482 x 489 km, 97.7° (Epoch: 18 January)

Date Brightness Start Highest point End Pass type
(mag) Time Alt. Az. Time Alt. Az. Time Alt. Az.
26 Jan ? 10:43:55 10° N 10:44:25 13° N 10:44:25 13° N visible
27 Jan ? 10:19:36 10° NNE 10:20:16 15° NNE 10:20:16 15° NNE visible
28 Jan ? 09:55:39 10° NE 09:56:07 13° NE 09:56:07 13° NE visible
28 Jan ? 11:30:03 10° NW 11:30:30 11° NW 11:30:30 11° NW visible
